Simultaneous Nadir Overpasses (SNOs) Predictions

Prediction of SNOs between GOES-16 and NOAA-19 Satellite Orbit:

Table of predicted SNOs for the next 14.0 days since TLE Epoch: 8/29/2025
Index Date Time (GOES-16) GOES-16 Lat,Lon NOAA-19 Lat,Lon Distance(km) Time Diff (sec)
1 08/30/2025 17:04:50 0.05,-104.71 0.57,-107.08 269.55 80
2 08/31/2025 16:49:30 0.05,-104.71 -0.09,-103.99 80.76 80
3 09/01/2025 16:36:50 0.05,-104.70 -0.81,-100.92 430.91 80
4 09/03/2025 05:10:49 -0.06,-104.66 -0.95,-108.45 433.12 80
5 09/04/2025 04:58:10 -0.06,-104.65 -0.24,-105.38 83.14 80
6 09/05/2025 04:42:51 -0.06,-104.65 0.47,-102.30 266.88 80
7 09/07/2025 17:03:52 0.07,-104.67 0.56,-106.69 230.39 80
8 09/08/2025 16:48:33 0.06,-104.67 -0.17,-103.62 119.95 80
9 09/09/2025 16:35:53 0.06,-104.67 -0.89,-100.55 470.23 80
10 09/11/2025 05:09:54 -0.08,-104.62 -0.84,-108.08 393.68 80
11 09/12/2025 04:57:13 -0.07,-104.62 -0.17,-105.00 43.69 80
